Time,TemperatureF,DewpointF,PressureIn,WindDirection,WindDirectionDegrees,WindSpeedMPH,WindSpeedGustMPH,Humidity,HourlyPrecipIn,Conditions,Clouds,dailyrainin,SoftwareType,DateUTC
2013-09-12 00:00:00,77.9,70.1,29.90,East,90,2.2,-999.0,77,-99.99,,,0.00,Acu-Link.com,2013-09-12 04:00:00,
2013-09-12 00:15:00,77.5,69.7,29.90,ENE,67,2.7,-999.0,77,-99.99,,,0.00,Acu-Link.com,2013-09-12 04:15:00,
2013-09-12 00:30:00,77.4,70.4,29.90,ENE,67,1.7,-999.0,79,-99.99,,,0.00,Acu-Link.com,2013-09-12 04:30:00,
2013-09-12 00:45:00,76.6,70.0,29.90,ENE,67,0.0,-999.0,80,-99.99,,,0.00,Acu-Link.com,2013-09-12 04:45:00,
2013-09-12 01:00:00,76.3,70.4,29.88,ENE,67,0.0,-999.0,82,-99.99,,,0.00,Acu-Link.com,2013-09-12 05:00:00,
2013-09-12 01:15:00,75.9,70.4,29.89,ENE,67,0.0,-999.0,83,-99.99,,,0.00,Acu-Link.com,2013-09-12 05:15:00,
2013-09-12 01:30:00,75.6,70.4,29.88,ENE,67,0.0,-999.0,84,-99.99,,,0.00,Acu-Link.com,2013-09-12 05:30:00,
2013-09-12 01:45:00,75.6,70.8,29.87,ENE,67,0.0,-999.0,85,-99.99,,,0.00,Acu-Link.com,2013-09-12 05:45:00,
2013-09-12 02:01:00,75.9,71.4,29.87,ENE,67,0.0,-999.0,86,-99.99,,,0.00,Acu-Link.com,2013-09-12 06:01:00,
2013-09-12 02:16:00,75.7,71.2,29.87,ENE,67,0.0,-999.0,86,-99.99,,,0.00,Acu-Link.com,2013-09-12 06:16:00,
2013-09-12 02:31:00,75.9,71.4,29.87,East,90,2.2,-999.0,86,-99.99,,,0.00,Acu-Link.com,2013-09-12 06:31:00,
2013-09-12 02:46:00,75.9,71.4,29.86,ENE,67,0.0,-999.0,86,-99.99,,,0.00,Acu-Link.com,2013-09-12 06:46:00,
2013-09-12 03:01:00,76.1,71.6,29.86,ENE,67,0.0,-999.0,86,-99.99,,,0.00,Acu-Link.com,2013-09-12 07:01:00,
2013-09-12 03:16:00,75.7,71.2,29.86,ENE,67,0.0,-999.0,86,-99.99,,,0.00,Acu-Link.com,2013-09-12 07:16:00,
2013-09-12 03:31:00,75.6,71.1,29.85,NE,45,0.0,-999.0,86,-99.99,,,0.00,Acu-Link.com,2013-09-12 07:31:00,
2013-09-12 03:46:00,75.4,70.9,29.85,ENE,67,0.0,-999.0,86,-99.99,,,0.00,Acu-Link.com,2013-09-12 07:46:00,
2013-09-12 04:01:00,75.6,71.4,29.85,ENE,67,1.7,-999.0,87,-99.99,,,0.00,Acu-Link.com,2013-09-12 08:01:00,
2013-09-12 04:17:00,75.6,71.4,29.85,ENE,67,0.0,-999.0,87,-99.99,,,0.00,Acu-Link.com,2013-09-12 08:17:00,
2013-09-12 04:32:00,75.4,71.3,29.85,NE,45,0.0,-999.0,87,-99.99,,,0.00,Acu-Link.com,2013-09-12 08:32:00,
2013-09-12 04:47:00,75.4,71.6,29.85,NE,45,0.0,-999.0,88,-99.99,,,0.00,Acu-Link.com,2013-09-12 08:47:00,
2013-09-12 05:02:00,75.4,71.6,29.85,NE,45,0.0,-999.0,88,-99.99,,,0.00,Acu-Link.com,2013-09-12 09:02:00,
2013-09-12 05:17:00,75.6,71.8,29.86,NNE,22,1.7,-999.0,88,-99.99,,,0.00,Acu-Link.com,2013-09-12 09:17:00,
2013-09-12 05:33:00,75.6,71.8,29.86,NNE,22,0.0,-999.0,88,-99.99,,,0.00,Acu-Link.com,2013-09-12 09:33:00,
2013-09-12 05:48:00,75.4,71.6,29.87,NNE,22,0.0,-999.0,88,-99.99,,,0.00,Acu-Link.com,2013-09-12 09:48:00,
2013-09-12 06:03:00,75.4,71.6,29.86,NNE,22,0.0,-999.0,88,-99.99,,,0.00,Acu-Link.com,2013-09-12 10:03:00,
2013-09-12 06:18:00,75.4,71.6,29.87,NNE,22,0.0,-999.0,88,-99.99,,,0.00,Acu-Link.com,2013-09-12 10:18:00,
2013-09-12 06:33:00,75.4,71.6,29.88,NNE,22,0.0,-999.0,88,-99.99,,,0.00,Acu-Link.com,2013-09-12 10:33:00,
2013-09-12 06:48:00,75.6,72.1,29.87,NNE,22,0.0,-999.0,89,-99.99,,,0.00,Acu-Link.com,2013-09-12 10:48:00,
2013-09-12 07:03:00,75.4,71.9,29.87,NNE,22,0.0,-999.0,89,-99.99,,,0.00,Acu-Link.com,2013-09-12 11:03:00,
2013-09-12 07:18:00,75.4,71.9,29.87,NNE,22,0.0,-999.0,89,-99.99,,,0.00,Acu-Link.com,2013-09-12 11:18:00,
2013-09-12 07:34:00,75.7,72.2,29.87,NNE,22,0.0,-999.0,89,-99.99,,,0.00,Acu-Link.com,2013-09-12 11:34:00,
2013-09-12 07:49:00,76.3,72.8,29.88,NNE,22,2.7,-999.0,89,-99.99,,,0.00,Acu-Link.com,2013-09-12 11:49:00,
2013-09-12 08:04:00,77.4,73.2,29.87,NNE,22,0.0,-999.0,87,-99.99,,,0.00,Acu-Link.com,2013-09-12 12:04:00,
2013-09-12 08:19:00,78.1,73.6,29.88,NNE,22,1.1,-999.0,86,-99.99,,,0.00,Acu-Link.com,2013-09-12 12:19:00,
2013-09-12 08:34:00,79.0,73.4,29.88,ENE,67,1.7,-999.0,83,-99.99,,,0.00,Acu-Link.com,2013-09-12 12:34:00,
2013-09-12 08:49:00,79.7,72.6,29.89,ENE,67,1.7,-999.0,79,-99.99,,,0.00,Acu-Link.com,2013-09-12 12:49:00,
2013-09-12 09:04:00,80.8,73.3,29.89,ENE,67,0.0,-999.0,78,-99.99,,,0.00,Acu-Link.com,2013-09-12 13:04:00,
2013-09-12 09:19:00,81.9,73.6,29.89,ENE,67,0.0,-999.0,76,-99.99,,,0.00,Acu-Link.com,2013-09-12 13:19:00,
2013-09-12 09:34:00,82.6,73.5,29.89,East,90,4.2,-999.0,74,-99.99,,,0.00,Acu-Link.com,2013-09-12 13:34:00,
2013-09-12 09:50:00,83.1,73.5,29.89,East,90,5.8,-999.0,73,-99.99,,,0.00,Acu-Link.com,2013-09-12 13:50:00,
2013-09-12 10:05:00,83.7,73.7,29.89,ESE,112,2.2,-999.0,72,-99.99,,,0.00,Acu-Link.com,2013-09-12 14:05:00,
2013-09-12 10:20:00,84.4,73.5,29.88,East,90,2.2,-999.0,70,-99.99,,,0.00,Acu-Link.com,2013-09-12 14:20:00,
2013-09-12 10:35:00,84.0,73.1,29.88,East,90,2.7,-999.0,70,-99.99,,,0.00,Acu-Link.com,2013-09-12 14:35:00,
2013-09-12 10:50:00,84.4,72.2,29.88,ESE,112,4.2,-999.0,67,-99.99,,,0.00,Acu-Link.com,2013-09-12 14:50:00,
2013-09-12 11:05:00,84.6,72.0,29.88,ESE,112,3.2,-999.0,66,-99.99,,,0.00,Acu-Link.com,2013-09-12 15:05:00,
2013-09-12 11:20:00,84.9,72.2,29.88,East,90,3.7,-999.0,66,-99.99,,,0.00,Acu-Link.com,2013-09-12 15:20:00,
2013-09-12 11:35:00,85.1,72.0,29.88,East,90,3.2,-999.0,65,-99.99,,,0.00,Acu-Link.com,2013-09-12 15:35:00,
2013-09-12 11:50:00,84.2,73.8,29.87,SSE,157,2.2,-999.0,71,-99.99,,,0.00,Acu-Link.com,2013-09-12 15:50:00,
2013-09-12 12:06:00,84.6,73.3,29.87,East,90,2.7,-999.0,69,-99.99,,,0.00,Acu-Link.com,2013-09-12 16:06:00,
2013-09-12 12:21:00,84.4,73.5,29.86,East,90,4.7,-999.0,70,-99.99,,,0.00,Acu-Link.com,2013-09-12 16:21:00,
2013-09-12 12:36:00,84.4,74.4,29.86,ENE,67,3.7,-999.0,72,-99.99,,,0.00,Acu-Link.com,2013-09-12 16:36:00,
2013-09-12 12:51:00,81.9,74.0,29.86,SSE,157,7.3,-999.0,77,-99.99,,,0.00,Acu-Link.com,2013-09-12 16:51:00,
2013-09-12 13:06:00,83.3,73.7,29.85,ENE,67,2.2,-999.0,73,-99.99,,,0.00,Acu-Link.com,2013-09-12 17:06:00,
2013-09-12 13:21:00,86.2,73.0,29.85,ESE,112,3.2,-999.0,65,-99.99,,,0.00,Acu-Link.com,2013-09-12 17:21:00,
2013-09-12 13:36:00,87.3,73.1,29.84,NE,45,2.7,-999.0,63,-99.99,,,0.00,Acu-Link.com,2013-09-12 17:36:00,
2013-09-12 13:51:00,88.0,72.3,29.84,East,90,3.7,-999.0,60,-99.99,,,0.00,Acu-Link.com,2013-09-12 17:51:00,
2013-09-12 14:06:00,87.1,71.5,29.83,ESE,112,6.3,-999.0,60,-99.99,,,0.00,Acu-Link.com,2013-09-12 18:06:00,
2013-09-12 14:21:00,86.0,72.4,29.83,ESE,112,7.8,-999.0,64,-99.99,,,0.00,Acu-Link.com,2013-09-12 18:21:00,
2013-09-12 14:37:00,86.0,72.8,29.83,South,180,4.2,-999.0,65,-99.99,,,0.00,Acu-Link.com,2013-09-12 18:37:00,
2013-09-12 14:52:00,85.6,72.5,29.81,SE,135,4.7,-999.0,65,-99.99,,,0.00,Acu-Link.com,2013-09-12 18:52:00,
2013-09-12 15:07:00,85.1,72.0,29.80,ESE,112,6.8,-999.0,65,-99.99,,,0.00,Acu-Link.com,2013-09-12 19:07:00,
2013-09-12 15:22:00,86.5,72.8,29.80,SE,135,4.2,-999.0,64,-99.99,,,0.00,Acu-Link.com,2013-09-12 19:22:00,
2013-09-12 15:37:00,86.5,73.8,29.79,SSE,157,5.3,-999.0,66,-99.99,,,0.00,Acu-Link.com,2013-09-12 19:37:00,
2013-09-12 15:52:00,86.0,72.4,29.79,ESE,112,3.7,-999.0,64,-99.99,,,0.00,Acu-Link.com,2013-09-12 19:52:00,
2013-09-12 16:07:00,86.2,72.1,29.78,East,90,3.7,-999.0,63,-99.99,,,0.00,Acu-Link.com,2013-09-12 20:07:00,
2013-09-12 16:22:00,86.9,72.3,29.78,ESE,112,3.2,-999.0,62,-99.99,,,0.00,Acu-Link.com,2013-09-12 20:22:00,
2013-09-12 16:38:00,86.5,71.4,29.78,ENE,67,3.2,-999.0,61,-99.99,,,0.00,Acu-Link.com,2013-09-12 20:38:00,
2013-09-12 16:53:00,86.9,72.3,29.77,East,90,2.2,-999.0,62,-99.99,,,0.00,Acu-Link.com,2013-09-12 20:53:00,
2013-09-12 17:08:00,85.6,72.5,29.78,ENE,67,4.7,-999.0,65,-99.99,,,0.00,Acu-Link.com,2013-09-12 21:08:00,
2013-09-12 17:23:00,85.1,72.9,29.78,East,90,3.7,-999.0,67,-99.99,,,0.00,Acu-Link.com,2013-09-12 21:23:00,
2013-09-12 17:38:00,85.5,72.8,29.78,ENE,67,4.2,-999.0,66,-99.99,,,0.00,Acu-Link.com,2013-09-12 21:38:00,
2013-09-12 17:53:00,84.4,73.1,29.79,East,90,1.7,-999.0,69,-99.99,,,0.00,Acu-Link.com,2013-09-12 21:53:00,
2013-09-12 18:08:00,83.7,72.9,29.78,ENE,67,2.7,-999.0,70,-99.99,,,0.00,Acu-Link.com,2013-09-12 22:08:00,
2013-09-12 18:23:00,82.9,72.5,29.78,East,90,4.2,-999.0,71,-99.99,,,0.00,Acu-Link.com,2013-09-12 22:23:00,
2013-09-12 18:38:00,82.6,73.0,29.77,East,90,2.7,-999.0,73,-99.99,,,0.00,Acu-Link.com,2013-09-12 22:38:00,
2013-09-12 18:53:00,82.4,72.9,29.77,ENE,67,2.7,-999.0,73,-99.99,,,0.00,Acu-Link.com,2013-09-12 22:53:00,
2013-09-12 19:09:00,82.0,73.3,29.78,NNE,22,2.2,-999.0,75,-99.99,,,0.00,Acu-Link.com,2013-09-12 23:09:00,
2013-09-12 19:24:00,81.7,73.4,29.79,ENE,67,0.0,-999.0,76,-99.99,,,0.00,Acu-Link.com,2013-09-12 23:24:00,
2013-09-12 19:39:00,81.1,72.8,29.79,NNE,22,2.7,-999.0,76,-99.99,,,0.00,Acu-Link.com,2013-09-12 23:39:00,
2013-09-12 19:54:00,80.6,72.7,29.79,NE,45,2.7,-999.0,77,-99.99,,,0.00,Acu-Link.com,2013-09-12 23:54:00,
2013-09-12 20:09:00,79.9,72.0,29.80,NE,45,2.7,-999.0,77,-99.99,,,0.00,Acu-Link.com,2013-09-13 00:09:00,
2013-09-12 20:24:00,79.3,72.2,29.80,NE,45,1.7,-999.0,79,-99.99,,,0.00,Acu-Link.com,2013-09-13 00:24:00,
2013-09-12 20:40:00,79.2,72.5,29.80,ENE,67,2.7,-999.0,80,-99.99,,,0.00,Acu-Link.com,2013-09-13 00:40:00,
2013-09-12 20:55:00,79.0,72.7,29.80,NE,45,3.2,-999.0,81,-99.99,,,0.00,Acu-Link.com,2013-09-13 00:55:00,
2013-09-12 21:10:00,79.0,72.7,29.81,NNE,22,3.2,-999.0,81,-99.99,,,0.00,Acu-Link.com,2013-09-13 01:10:00,
2013-09-12 21:25:00,78.6,72.6,29.81,ENE,67,0.0,-999.0,82,-99.99,,,0.00,Acu-Link.com,2013-09-13 01:25:00,
2013-09-12 21:40:00,78.4,72.4,29.81,ENE,67,2.2,-999.0,82,-99.99,,,0.00,Acu-Link.com,2013-09-13 01:40:00,
2013-09-12 21:55:00,78.4,72.8,29.82,NE,45,2.2,-999.0,83,-99.99,,,0.00,Acu-Link.com,2013-09-13 01:55:00,
2013-09-12 22:10:00,78.4,72.8,29.81,NE,45,3.2,-999.0,83,-99.99,,,0.00,Acu-Link.com,2013-09-13 02:10:00,
2013-09-12 22:25:00,78.1,72.5,29.81,NE,45,1.7,-999.0,83,-99.99,,,0.00,Acu-Link.com,2013-09-13 02:25:00,
2013-09-12 22:40:00,77.9,72.3,29.81,ENE,67,0.0,-999.0,83,-99.99,,,0.00,Acu-Link.com,2013-09-13 02:40:00,
2013-09-12 22:56:00,77.5,72.3,29.80,NE,45,1.1,-999.0,84,-99.99,,,0.05,Acu-Link.com,2013-09-13 02:56:00,
2013-09-12 23:11:00,77.0,72.5,29.80,ENE,67,2.2,-999.0,86,-99.99,,,0.06,Acu-Link.com,2013-09-13 03:11:00,
2013-09-12 23:26:00,77.0,72.8,29.80,ENE,67,4.2,-999.0,87,-99.99,,,0.08,Acu-Link.com,2013-09-13 03:26:00,
2013-09-12 23:41:00,76.5,72.3,29.80,ESE,112,2.7,-999.0,87,-99.99,,,0.10,Acu-Link.com,2013-09-13 03:41:00,
2013-09-12 23:56:00,75.7,71.2,29.80,ENE,67,3.2,-999.0,86,-99.99,,,0.10,Acu-Link.com,2013-09-13 03:56:00,